Cutler
DateTemperatureDew Point
05/02 - 11:15 AM82.4°59.0°
05/02 - 11:00 AM82.0°58.0°
05/02 - 10:45 AM81.2°58.9°
05/02 - 10:30 AM79.0°58.7°
05/02 - 10:15 AM76.8°59.1°
05/02 - 10:00 AM74.6°58.6°
05/02 - 09:45 AM73.5°58.8°
05/02 - 09:30 AM72.5°59.8°
05/02 - 09:15 AM71.4°59.0°
05/02 - 09:00 AM70.8°58.5°
05/02 - 08:45 AM69.1°57.7°
05/02 - 08:30 AM68.2°57.1°
05/02 - 08:15 AM66.5°57.0°
05/02 - 08:00 AM64.5°57.2°
05/02 - 07:45 AM63.3°56.7°
05/02 - 07:30 AM61.4°55.7°
05/02 - 07:15 AM57.6°56.6°
05/02 - 07:00 AM53.5°52.6°
05/02 - 06:45 AM52.8°51.6°
05/02 - 06:30 AM53.0°51.6°
05/02 - 06:15 AM53.2°51.5°
05/02 - 06:00 AM53.7°52.0°
05/02 - 05:45 AM54.3°52.7°
05/02 - 05:30 AM55.0°53.8°
05/02 - 05:15 AM55.2°54.1°
05/02 - 05:00 AM55.2°54.2°
05/02 - 04:45 AM54.8°53.1°
05/02 - 04:30 AM55.0°53.3°
05/02 - 04:15 AM55.6°54.3°
05/02 - 04:00 AM55.7°54.4°
05/02 - 03:45 AM55.0°53.4°
05/02 - 03:30 AM55.0°53.1°
05/02 - 03:15 AM55.1°53.0°
05/02 - 03:00 AM55.3°52.8°
05/02 - 02:45 AM55.9°53.0°
05/02 - 02:30 AM56.4°53.3°
05/02 - 02:15 AM57.2°53.9°
05/02 - 02:00 AM58.4°54.5°
05/02 - 01:45 AM59.5°55.4°
05/02 - 01:30 AM60.3°56.0°
05/02 - 01:15 AM60.4°56.3°
05/02 - 01:00 AM59.9°56.5°
05/02 - 12:45 AM60.1°57.0°
05/02 - 12:30 AM59.7°57.3°
05/02 - 12:15 AM58.9°56.8°
05/02 - 12:00 AM58.5°54.8°
05/01 - 11:45 PM59.0°55.2°
05/01 - 11:30 PM59.8°55.7°
05/01 - 11:15 PM60.3°55.8°
05/01 - 11:00 PM61.1°56.1°
05/01 - 10:45 PM61.9°56.4°
05/01 - 10:30 PM62.4°56.3°
05/01 - 10:15 PM62.8°56.8°
05/01 - 10:00 PM63.9°57.3°
05/01 - 09:45 PM64.8°57.7°
05/01 - 09:30 PM65.7°57.7°
05/01 - 09:15 PM66.4°57.4°
05/01 - 09:00 PM67.4°57.8°
05/01 - 08:45 PM68.8°57.8°
05/01 - 08:30 PM70.7°58.1°
05/01 - 08:15 PM73.2°58.5°
05/01 - 08:00 PM75.8°57.9°
05/01 - 07:45 PM77.9°57.4°
05/01 - 07:30 PM79.8°57.9°
05/01 - 07:15 PM81.8°58.3°
05/01 - 07:00 PM83.5°57.7°
05/01 - 06:45 PM85.4°57.3°
05/01 - 06:30 PM86.6°56.8°
05/01 - 06:15 PM87.3°56.3°
05/01 - 06:00 PM88.5°56.1°
05/01 - 05:45 PM89.5°55.2°
05/01 - 05:30 PM89.8°55.1°
05/01 - 05:15 PM89.4°54.5°
05/01 - 05:00 PM89.7°55.0°
05/01 - 04:45 PM89.7°54.8°
05/01 - 04:30 PM89.8°54.7°
05/01 - 04:15 PM89.5°55.2°
05/01 - 04:00 PM88.9°54.6°
05/01 - 03:45 PM88.5°55.9°
05/01 - 03:30 PM88.8°56.5°
05/01 - 03:15 PM87.6°54.8°
05/01 - 03:00 PM88.3°56.6°
05/01 - 02:45 PM88.4°56.2°
05/01 - 02:30 PM88.1°56.2°
05/01 - 02:15 PM86.5°56.7°
05/01 - 02:00 PM85.8°56.4°
05/01 - 01:45 PM85.6°56.9°
05/01 - 01:30 PM85.2°57.6°
05/01 - 01:15 PM84.4°56.8°
05/01 - 01:00 PM83.6°57.8°
05/01 - 12:45 PM83.4°58.2°
05/01 - 12:30 PM83.0°57.8°
05/01 - 12:15 PM82.8°58.7°
05/01 - 12:00 PM81.9°58.7°
05/01 - 11:45 AM81.2°58.7°
05/01 - 11:30 AM80.2°58.7°
05/01 - 11:15 AM79.3°58.4°
05/01 - 11:00 AM79.4°58.3°
05/01 - 10:45 AM78.5°58.4°
05/01 - 10:30 AM76.5°57.4°
05/01 - 10:15 AM75.8°56.9°
05/01 - 10:00 AM74.8°56.4°
05/01 - 09:45 AM73.6°55.8°
05/01 - 09:30 AM72.4°55.2°
05/01 - 09:15 AM71.4°55.4°
05/01 - 09:00 AM70.3°55.2°
05/01 - 08:45 AM68.9°55.6°
05/01 - 08:30 AM67.1°55.8°
05/01 - 08:15 AM65.4°56.0°
05/01 - 08:00 AM63.1°56.1°
05/01 - 07:45 AM60.4°56.0°
05/01 - 07:30 AM57.6°55.4°
05/01 - 07:15 AM54.8°54.0°
05/01 - 07:00 AM53.8°53.4°
05/01 - 06:45 AM52.6°52.1°
05/01 - 06:30 AM51.3°50.6°
05/01 - 06:15 AM49.3°48.0°
05/01 - 06:00 AM49.2°47.7°
05/01 - 05:45 AM49.2°47.6°
05/01 - 05:30 AM49.7°48.0°
05/01 - 05:15 AM50.0°48.3°
05/01 - 05:00 AM50.7°49.1°
05/01 - 04:45 AM51.3°49.6°
05/01 - 04:30 AM52.0°50.0°
05/01 - 04:15 AM52.3°50.1°
05/01 - 04:00 AM52.9°50.6°
05/01 - 03:45 AM53.7°51.4°
05/01 - 03:30 AM54.5°52.6°
05/01 - 03:15 AM54.7°53.2°
05/01 - 03:00 AM54.9°53.3°
05/01 - 02:45 AM54.4°53.0°
05/01 - 02:30 AM54.3°52.6°
05/01 - 02:15 AM54.4°52.4°
05/01 - 02:00 AM54.6°52.1°
05/01 - 01:45 AM55.1°52.5°
05/01 - 01:30 AM55.6°53.1°
05/01 - 01:15 AM55.3°52.8°
05/01 - 01:00 AM55.2°52.5°
05/01 - 12:45 AM55.5°52.3°
05/01 - 12:30 AM56.4°52.9°
05/01 - 12:15 AM57.1°53.3°
05/01 - 12:00 AM57.7°53.8°
04/30 - 11:45 PM58.0°53.7°
04/30 - 11:30 PM58.2°53.5°
04/30 - 11:15 PM58.9°53.4°
04/30 - 11:00 PM60.1°53.6°
04/30 - 10:45 PM61.1°53.8°
04/30 - 10:30 PM61.9°53.7°
04/30 - 10:15 PM63.2°53.6°
04/30 - 10:00 PM63.7°53.5°
04/30 - 09:45 PM64.7°54.2°
04/30 - 09:30 PM65.1°53.4°
04/30 - 09:15 PM65.1°53.8°
04/30 - 09:00 PM65.6°53.9°
04/30 - 08:45 PM66.3°54.7°
04/30 - 08:30 PM67.1°54.5°
04/30 - 08:15 PM69.9°55.4°
04/30 - 08:00 PM71.2°54.6°
04/30 - 07:45 PM74.7°56.0°
04/30 - 07:30 PM77.0°55.3°
04/30 - 07:15 PM78.9°54.3°
04/30 - 07:00 PM80.4°53.8°
04/30 - 06:45 PM81.6°53.3°
04/30 - 06:30 PM83.1°53.3°
04/30 - 06:15 PM84.4°53.5°
04/30 - 06:00 PM85.2°53.4°
04/30 - 05:45 PM86.1°53.0°
04/30 - 05:30 PM86.3°53.1°
04/30 - 05:15 PM86.5°53.2°
04/30 - 05:00 PM86.4°53.3°
04/30 - 04:45 PM86.6°53.6°
04/30 - 04:30 PM86.1°53.1°
04/30 - 04:15 PM85.9°53.7°
04/30 - 04:00 PM85.6°53.6°
04/30 - 03:45 PM85.2°54.1°
04/30 - 03:30 PM85.3°53.8°
04/30 - 03:15 PM84.9°53.7°
04/30 - 03:00 PM84.4°54.4°
04/30 - 02:45 PM83.8°53.5°
04/30 - 02:30 PM84.3°53.3°
04/30 - 02:15 PM83.7°53.5°
04/30 - 02:00 PM82.8°54.0°
04/30 - 01:45 PM82.4°54.1°
04/30 - 01:30 PM81.5°53.6°
04/30 - 01:15 PM80.7°54.0°
04/30 - 01:00 PM80.7°53.4°
04/30 - 12:45 PM80.3°53.4°
04/30 - 12:30 PM79.3°53.7°
04/30 - 12:15 PM79.9°53.8°
04/30 - 12:00 PM78.5°53.5°
04/30 - 11:45 AM77.3°53.5°